Location: Doverdale
(52.2833°N, 2.2000°W)
Time: 12:10:53
(UTC+00:00)

Cosmos 1943 Rocket - Pass Details

Date: 29 October 2020
Orbit: 813 x 842 km, 71.0° (Epoch: 25 November)

Event Time Altitude Azimuth Distance (km) Brightness Sun altitude
Rises 17:56:22 0° 271° (W) 3,350 7.3 -11.4°
Reaches altitude 10° 17:59:40 10° 291° (WNW) 2,416 5.6 -11.9°
Maximum altitude 18:03:17 17° 332° (NNW) 1,943 4.4 -12.5°
Drops below altitude 10° 18:06:55 10° 13° (NNE) 2,416 4.4 -13.1°
Enters shadow 18:09:39 - 31° (NNE) 3,175 4.9 -13.5°
